Flag for Germany Weather past 2 weeks in Karlsruhe, Baden-Württemberg, Germany

Now
63 °F

Clear.


Feels Like: 63 °F
Forecast: 65 / 75 °F
Wind: 2 mph from North

Location: Karlsruhe - Baden Wurttemberg

Current Time: Jul 7, 2015 at 4:35:38 AM

Latest Report: Jul 7, 2015 at 4:20 AM


Visibility: 10 mi

Pressure: 29.98 "Hg

Humidity: 77%

Dew point: 55 °F

Location of KarlsruheLocation

Historic Weather in Karlsruhe — Graph

°F

Karlsruhe temperature yesterday

Maximum temperature yesterday: 86 °F (at 4:50 PM)
Minimum temperature yesterday: 66 °F (at 6:50 AM)
Average temperature yesterday: 77 °F

Past Weeks' High & Low Weather Summary

 TemperatureHumidityPressure
High100 °F (Jul 4, 4:50 PM)94% (Jun 22, 5:20 AM)30.21 "Hg (Jun 22, 5:20 AM)
Low48 °F (Jun 23, 6:20 AM)22% (Jul 4, 4:50 PM)29.74 "Hg (Jun 22, 7:50 PM)
Average74 °F55%30.09 "Hg
* Reported Jun 21 11:20 PM — Jul 6 11:50 PM, Karlsruhe, Weather by CustomWeather, © 2015

Note: Actual official high and low records may vary slightly from our data, if they occured in-between our weather recording intervals... More about our weather records

Advertising

Karlsruhe weather history for previous 24 hours

 ConditionsComfort  
Time TempWeatherWind HumidityBarometerVisibility
11:50 PM
Mon, Jul 6
68 °FClear.2 mph64%30.04 "Hg10 mi
11:20 PM70 °FClear.2 mph60%30.04 "Hg10 mi
10:50 PM72 °FClear.2 mph57%30.07 "Hg10 mi
10:20 PM72 °FSunny.2 mph61%30.07 "Hg10 mi
9:50 PM75 °FSunny.2 mph54%30.07 "Hg10 mi
9:20 PM79 °FSunny.3 mph45%30.07 "Hg10 mi
8:50 PM81 °FSunny.2 mph39%30.07 "Hg10 mi
8:20 PM82 °FSunny.3 mph35%30.07 "Hg10 mi
7:50 PM84 °FSunny.2 mph31%30.07 "Hg10 mi
7:20 PM84 °FSunny.3 mph31%30.07 "Hg10 mi
6:50 PM84 °FSunny.5 mph29%30.07 "Hg10 mi
6:20 PM84 °FPassing clouds.6 mph29%30.07 "HgN/A
5:50 PM84 °FSunny.3 mph29%30.09 "Hg10 mi
5:20 PM86 °FSunny.2 mph27%30.09 "Hg10 mi
4:50 PM86 °FSunny.3 mph27%30.09 "Hg10 mi
4:20 PM84 °FPassing clouds.6 mph29%30.09 "HgN/A
3:50 PM84 °FSunny.3 mph31%30.12 "Hg10 mi
3:20 PM84 °FPassing clouds.7 mph29%30.12 "HgN/A
2:50 PM82 °FPassing clouds.6 mph32%30.12 "HgN/A
2:20 PM82 °FPassing clouds.6 mph32%30.15 "HgN/A
1:50 PM81 °FPassing clouds.5 mph34%30.15 "HgN/A
1:20 PM81 °FPassing clouds.6 mph37%30.15 "HgN/A
12:50 PM79 °FSunny.3 mph34%30.18 "Hg10 mi
12:20 PM79 °FSunny.5 mph37%30.18 "Hg10 mi
11:50 AM77 °FSunny.3 mph39%30.18 "Hg10 mi
11:20 AM77 °FSunny.5 mph39%30.21 "Hg10 mi
10:50 AM77 °FSunny.2 mph39%30.21 "Hg10 mi
10:20 AM75 °FSunny.3 mph41%30.21 "Hg10 mi
9:50 AM75 °FSunny.2 mph39%30.21 "Hg10 mi
9:20 AM73 °FSunny.3 mph47%30.21 "Hg10 mi
8:50 AM72 °FSunny.2 mph61%30.21 "Hg10 mi
8:20 AM72 °FSunny.3 mph61%30.21 "Hg10 mi
7:50 AM68 °FSunny.5 mph69%30.21 "Hg10 mi
7:20 AM66 °FScattered clouds.3 mph73%30.18 "HgN/A
6:50 AM66 °FScattered clouds.5 mph73%30.18 "HgN/A
6:20 AM68 °FPassing clouds.2 mph69%30.18 "HgN/A
5:20 AM70 °FPassing clouds.2 mph69%30.18 "HgN/A
4:50 AM70 °FClear.3 mph69%30.15 "Hg10 mi
Weather by CustomWeather, © 2015

See weather overviewHow to use our weather pages